Location: Vancouver
(49.2500°N, 123.1330°W)
Time: 17:54:48
(UTC-08:00)

Daily predictions for brighter satellites

Satellite Brightness Start Highest point End
(mag) Time Altitude Azimuth Time Altitude Azimuth Time Altitude Azimuth
Cosmos 1674 Rocket 3.5 18:11:02 10° N 18:15:22 64° ENE 18:19:40 10° SSE
NOSS 3-2 (C) 3.5 18:09:57 10° SSW 18:15:56 74° SE 18:22:40 10° NE
Cosmos 921 Rocket 3.6 18:13:24 10° N 18:17:42 40° ENE 18:21:56 10° SE
Cosmos 2084 Rocket 3.8 18:19:50 10° SW 18:24:08 64° NW 18:28:15 10° NE
Cosmos 1908 Rocket 4.1 18:25:13 10° SSE 18:29:22 39° E 18:33:31 10° NNE
YAOGAN 1 3.6 18:27:07 10° S 18:31:20 51° W 18:35:35 10° NNW
CENTAUR R/B 2.9 18:27:57 10° S 18:33:42 47° ESE 18:40:18 10° NE
Cosmos 1733 Rocket 3.1 18:29:27 10° S 18:33:46 87° W 18:38:08 10° N
Cosmos 1943 4.1 18:31:15 10° NNW 18:36:14 30° NE 18:41:12 10° ESE
Cosmos 1633 2.7 18:32:53 10° S 18:36:19 47° E 18:39:48 10° NNE
USA 267 3.7 18:32:57 10° E 18:39:11 49° N 18:45:25 10° WNW
SKYMED 2 3.8 18:39:06 10° N 18:43:27 74° WNW 18:47:47 10° SSW
Iridium 4 Rocket 3.3 18:38:44 10° N 18:43:35 55° E 18:48:00 10° SSE
FENGYUN 3A 4.3 18:39:10 10° S 18:44:30 60° W 18:49:53 10° NNW
FengYun 1-2 T 4.2 18:40:16 10° SSE 18:45:43 71° ENE 18:51:13 10° N
Cosmos 2034 Rocket 4.1 18:39:48 10° N 18:46:08 61° ENE 18:52:25 10° SSE
Cosmos 1891 Rocket 4.4 18:39:57 10° N 18:46:13 71° E 18:52:18 10° SSE
Cosmos 158 Rocket 3.8 18:44:05 10° S 18:48:55 67° ESE 18:53:46 10° NNE
FREGAT/IRIS 2.5 18:47:12 10° SSE 18:50:07 59° ENE 18:53:04 10° N
Cosmos 1975 Rocket 3.3 18:47:24 10° N 18:51:44 48° ENE 18:56:03 10° SSE
COSMOS 2455 4.1 18:48:47 10° SE 18:52:45 18° ESE 18:54:57 15° ENE
Cosmos 2227 Rocket 2.8 18:48:05 10° SW 18:53:40 60° WNW 18:59:17 10° NNE
ERS-2 2.0 18:51:11 10° SSE 18:54:51 73° ENE 18:58:33 10° NNW
SL-16 R/B 3.1 18:50:52 10° NW 18:56:23 54° WSW 19:01:52 10° S
H-2A R/B 2.9 18:53:08 10° S 18:57:03 78° WSW 19:00:58 10° NNW
Spot 2 Rocket 4.5 18:55:19 15° ESE 18:58:30 27° ENE 19:02:43 10° N
SJ-6B 2.8 18:58:27 10° SSE 19:02:10 55° ENE 19:06:00 10° N
Cosmos 1048 Rocket 4.0 18:57:23 10° S 19:02:37 61° ESE 19:07:49 10° NNE
ATLAS CENTAUR R/B 2.1 19:00:49 10° NNW 19:04:36 35° NE 19:06:37 23° E
ATLAS 3B R/B 3.8 18:58:28 10° WSW 19:05:10 42° NNW 19:11:39 10° NE
Cosmos 2297 Rocket 2.9 19:01:42 10° SW 19:07:14 55° NW 19:12:50 10° NNE
Resurs 01 Rocket 2.3 19:07:01 18° ESE 19:09:38 34° ENE 19:13:38 10° N
NOSS 3-2 (A) 4.3 19:06:14 10° WSW 19:12:13 50° NW 19:18:55 10° NE
Cosmos 1378 Rocket 4.3 19:08:09 10° NNW 19:12:30 56° W 19:16:49 10° S
Okean 1 3.5 19:09:20 10° NNW 19:13:20 73° W 19:17:18 10° S
Cosmos 1603 3.6 19:09:35 10° NNW 19:15:18 82° ENE 19:20:55 10° SSE
SL-8 R/B 3.8 19:10:57 10° WSW 19:15:40 63° SSE 19:18:09 27° E
Meteor 1-13 Rocket 4.1 19:13:32 10° N 19:19:04 64° ENE 19:24:32 10° SSE
Cosmos 1302 Rocket 4.4 19:14:09 10° NNW 19:19:05 41° ENE 19:21:30 26° ESE
CZ-2D R/B 3.2 19:15:16 10° SSE 19:19:09 72° ENE 19:23:03 10° N
ARGOS Delta rocket 4.0 19:14:48 10° NNE 19:19:32 48° E 19:24:00 10° S
Cosmos 1536 Rocket 4.2 19:18:07 10° N 19:22:09 33° ENE 19:22:54 31° E
CZ-4C R/B 2.9 19:17:24 10° NW 19:24:12 60° NE 19:29:06 23° ESE
USA 186 2.0 19:24:21 44° E 19:24:42 46° ENE 19:27:56 10° N
Cosmos 1782 Rocket 3.5 19:22:52 10° S 19:27:18 86° E 19:31:44 10° N
Cosmos 1184 Rocket 2.8 19:24:32 10° N 19:27:46 53° ENE 19:28:01 52° E
Cosmos 1602 3.6 19:24:24 10° S 19:28:17 74° E 19:32:10 10° NNE
SeaSat 1 2.4 19:27:10 13° SSE 19:31:33 88° ENE 19:36:31 10° NNW
Cosmos 2263 Rocket 3.2 19:29:45 10° SSE 19:32:58 25° SE 19:32:58 25° SE
Sich 1 Rocket 4.2 19:33:59 10° SSW 19:38:25 58° WNW 19:42:49 10° N
Meteor 1-4 Rocket 2.8 19:40:04 10° S 19:47:55 - NNE 19:42:46 49° SSE
USA 215 3.5 19:43:22 31° E 19:45:57 45° SE 19:52:09 10° SSW
Envisat 3.2 19:42:21 10° S 19:47:25 74° WSW 19:52:32 10° NNW
Tsikada Rocket 4.0 19:41:08 10° S 19:47:34 87° W 19:54:01 10° N
Cosmos 1437 Rocket 3.6 19:45:29 10° SSW 19:49:29 54° WNW 19:53:33 10° N
ARGOS 4.2 19:51:25 28° NE 19:51:25 28° NE 19:55:26 10° N
Okean 2 Rocket 3.0 19:46:37 10° S 19:51:01 87° WNW 19:55:28 10° N
Meteor 2-4 Rocket 3.8 19:48:08 10° NNW 19:53:58 83° W 19:59:38 10° S
Thor Agena Rocket 3.5 19:51:29 10° NNE 19:56:38 85° WNW 20:01:41 10° SSW
YAOGAN 6 2.8 19:59:38 63° N 19:59:38 63° N 20:02:44 10° NNW
Cosmos 494 Rocket 3.8 19:54:08 10° SSW 19:59:19 72° ESE 20:04:29 10° NNE
Cosmos 2227 4.1 19:53:56 10° SSW 19:59:40 90° WNW 20:05:24 10° NNE
Meteor 1-5 Rocket 4.3 19:55:05 10° S 20:00:53 62° E 20:06:48 10° NNE
Cosmos 2082 Rocket 4.4 20:08:01 10° N 20:09:39 11° NNE 20:10:08 11° NNE
Meteor 1-11 Rocket 3.7 20:05:08 10° SSW 20:10:45 84° WNW 20:16:32 10° N
Cosmos 1939 Rocket 3.3 20:14:26 53° SW 20:15:06 61° W 20:19:11 10° NNW
NOAA 11 4.0 20:16:55 68° SE 20:17:30 76° ENE 20:22:57 10° NNW
Gbstr 26 Del rocket 4.4 20:15:03 10° SW 20:16:44 25° SW 20:16:44 25° SW
Cosmos 1943 3.6 20:15:05 10° NW 20:20:39 59° WSW 20:23:05 33° S
USA 267 3.1 20:20:15 55° ESE 20:21:53 84° NNE 20:28:28 10° NW
Cosmos 2279 Rocket 3.8 20:16:14 10° N 20:22:30 79° E 20:23:57 55° SSE
CENTAUR R/B 3.3 20:18:12 10° WSW 20:24:22 52° NW 20:30:23 15° NE
COSMOS 2406 4.3 20:20:27 10° NNW 20:24:35 31° NNE 20:24:35 31° NNE
H-2A R/B 3.2 20:30:32 32° NNE 20:30:32 32° NNE 20:33:49 10° N
ERS-1 Rocket 4.3 20:35:55 29° NNE 20:35:55 29° NNE 20:38:37 10° N
Spot 2 Rocket 4.2 20:35:30 36° SSW 20:37:13 51° W 20:42:10 10° NNW
COSMOS 2455 2.7 20:31:51 10° SSW 20:37:53 90° SE 20:38:14 80° NE
ATLAS CENTAUR R/B 2.9 20:39:44 10° NW 20:42:54 35° W 20:42:54 35° W
Resurs 01 Rocket 3.4 20:44:35 24° SW 20:46:08 30° W 20:50:04 10° NNW
ATLAS 3B R/B 4.4 20:52:12 10° WNW 20:57:42 24° N 21:00:28 19° NNE
BREEZE-M DEB (TANK) 4.4 20:56:43 10° SW 21:10:47 23° ENE 21:19:58 10° ENE
CZ-4C R/B 3.6 21:06:05 10° NW 21:12:49 45° WSW 21:14:20 41° SSW
Cosmos 2263 Rocket 3.9 21:12:37 10° SW 21:14:51 24° WSW 21:14:51 24° WSW
USA 215 3.7 21:30:45 55° W 21:30:45 55° W 21:35:45 10° WSW
Cosmos 2082 Rocket 4.4 21:50:28 10° NNW 21:51:59 17° N 21:51:59 17° N
H-2A R/B 4.4 22:11:09 20° NW 22:11:09 20° NW 22:13:08 10° NNW
CENTAUR R/B 4.4 22:10:59 10° WNW 22:16:47 28° N 22:17:36 27° N
